Terminal Aerodrome Forecast
Issued by NWS Sioux Falls, SD

Home | Current Version | Previous Version | Graphics & Text | Print | Product List | Glossary On
Versions: 1 2 3 4 5 6 7 8 9 10 11 12 13 14 15 16 17 18 19 20 21 22 23 24 25 26 27 28 29 30 31 32 33 34 35
000
FTUS43 KFSD 271142
TAFSUX
TAF
KSUX 271142Z 2712/2812 14010KT P6SM BKN150
      TEMPO 2712/2714 5SM TSRA OVC080CB
     FM271400 15012KT P6SM -SHRA SCT100 BKN200
     FM271600 15015G22KT P6SM BKN150
     FM280100 13013KT P6SM -SHRA SCT030 BKN100
      TEMPO 2803/2806 6SM -SHRA BKN030=

USA.gov is the U.S. government's official web portal to all federal, state and local government web resources and services.